Location: Newark
(25.0000°N, 73.5000°E)
Time: 18:09:04
(UTC+00:00)

RS-15 - Pass Details

Date: 01 March 2020
Orbit: 1898 x 2146 km, 64.8° (Epoch: 04 April)

Event Time Altitude Azimuth Distance (km) Brightness Sun altitude
Rises 15:08:51 0° 249° (WSW) 5,356 11.3 -28.1°
Reaches altitude 10° 15:13:21 10° 263° (W) 4,328 10.7 -29.1°
Maximum altitude 15:21:15 22° 310° (NW) 3,418 9.8 -30.9°
Drops below altitude 10° 15:29:08 10° 358° (N) 4,286 9.9 -32.6°
Sets 15:33:40 0° 13° (NNE) 5,292 10.3 -33.7°
